Presidente Peron Airport
SAZN : rendu visible

Aérodrome :











RETROUVEZ-NOUS SUR...

 
LOGIN :

S'inscrire | Disclaimer

   EN    FR    IT 

 









Légende :    VFR   VFR Marginal   IFR   IFR Intensif   IFR Très Intensif
Visi : 
Plafond : 
>= 8 km
>= 3000ft
5 à 8 km
1000 à 3000 ft
1500m à 5 km
500 à 1000 ft
800 à 1500m
200 à 500 ft
< 800m
< 200 ft
Symboles :   Orages  Brouillard  Fortes neiges  Fortes précipitations  Vent > 20 kt






- Altitude de l'aérodrome : 895 ft
- Code IATA : NQN


SAZN - Presidente Peron

DERNIER METAR :
  • 242000Z 27011KT CAVOK 25/05 Q1010

METARs EXPIRÉS :
  • 241900Z 23005KT CAVOK 26/06 Q1010
  • 241800Z 23004KT CAVOK 26/06 Q1011

TAF TAF SAZN
Valide du 24 à 18h jusqu'au 25 à 18h UTC


241700Z 2418/2518 25010KT CAVOK TX27/2419Z TN13/2510Z
BECMG 2419/2421 25015G25KT 9999 SCT040
PROB30
TEMPO 2421/2424 8000 -RA BKN040
BECMG 2501/2504 25015KT CAVOK
BECMG 2510/2513 27020G30KT
TEMPO 2516/2518 27025G35KT
FIR SAEF / Amérique du Sud



MET'MAP, la Météo Aéronautique d'un coup d'oeil ! - Copyright ORBIFLY Décembre 2007 - Disclaimer

ORBIFLY MET'MAP TEAM :

Programmation & Développement : Alexandra Zaïnal
Sur une idée originale de : Baudouin d'Aumeries
Assistance à la programmation : Marc-Olivier Méhu
Soutien technique & logistique : Manuel Goepfert

Contact : metmap@orbifly.com




SOURCES & CREDITS :

   NOAA       Earth
Advisory